CW4887 Weather Reports


Display with metric or nautical units.
time (UTC)temp
F
wind
direction
speed
MPH
gust
MPH
rain 1hr
in
rain 24hr
in
rain mn
in
humidity
%
barometer
mb
20260503183052 78 146 4.0 11.0 0.00 0.00 0.00 33 1011.3
20260503181535 78 158 2.0 8.0 0.00 0.00 0.00 35 1011.5
20260503180033 77 173 1.0 10.0 0.00 0.00 0.00 35 1011.6
20260503174529 76 119 0.0 4.0 0.00 0.00 0.00 41 1011.7
20260503173025 74 111 0.0 0.0 0.00 0.00 0.00 42 1011.9
20260503171521 72 88 0.0 0.0 0.00 0.00 0.00 46 1012.0
20260503081511 51 5 0.0 0.0 0.00 0.00 0.00 71 1012.5
20260503071557 54 5 0.0 2.0 0.00 0.00 0.00 69 1012.4
20260503054540 55 5 0.0 0.0 0.00 0.00 0.00 70 1012.3
20260503053029 56 5 0.0 0.0 0.00 0.00 0.00 68 1012.3
20260503051524 57 5 0.0 0.0 0.00 0.00 0.00 66 1012.2
20260503050030 58 5 0.0 0.0 0.00 0.00 0.00 64 1012.0
20260503044516 58 5 0.0 0.0 0.00 0.00 0.00 64 1011.9
20260503043016 59 5 0.0 0.0 0.00 0.00 0.00 62 1011.7
20260503041509 61 5 0.0 6.0 0.00 0.00 0.00 58 1011.3
20260503040002 62 5 0.0 0.0 0.00 0.00 0.00 58 1011.0
20260503034558 64 14 0.0 0.0 0.00 0.00 0.00 55 1010.8
20260503033123 67 14 0.0 0.0 0.00 0.00 0.00 48 1010.7
20260503031556 71 99 0.0 0.0 0.00 0.00 0.00 36 1010.5
20260503030045 73 99 0.0 8.0 0.00 0.00 0.00 34 1010.2
20260503024551 75 103 0.0 7.0 0.00 0.00 0.00 32 1010.1
20260503023036 75 82 0.0 10.0 0.00 0.00 0.00 31 1010.1
20260503021532 76 84 5.0 10.0 0.00 0.00 0.00 30 1009.9
20260503020028 76 69 1.0 14.0 0.00 0.00 0.00 31 1009.9
20260503014537 76 76 1.0 13.0 0.00 0.00 0.00 30 1009.8
20260503013025 77 76 3.0 10.0 0.00 0.00 0.00 31 1009.9
20260503011514 77 83 6.0 12.0 0.00 0.00 0.00 29 1009.9
20260503010010 77 46 3.0 13.0 0.00 0.00 0.00 29 1009.8
20260503004505 78 49 5.0 12.0 0.00 0.00 0.00 29 1009.8
20260503003001 77 53 5.0 14.0 0.00 0.00 0.00 28 1009.8
20260503001602 78 63 5.0 11.0 0.00 0.00 0.00 29 1009.8
20260503000106 78 46 5.0 13.0 0.00 0.00 0.00 29 1009.8
20260502234602 78 47 6.0 16.0 0.00 0.00 0.00 29 1009.8
20260502233059 78 57 1.0 13.0 0.00 0.00 0.00 29 1010.0
20260502231556 78 76 6.0 18.0 0.00 0.00 0.00 29 1010.3
20260502230035 77 77 5.0 13.0 0.00 0.00 0.00 29 1010.4
20260502224532 77 107 0.0 10.0 0.00 0.00 0.00 30 1010.6
20260502223027 76 77 5.0 14.0 0.00 0.00 0.00 31 1010.6
20260502221521 76 77 4.0 10.0 0.00 0.00 0.00 33 1010.8
20260502220022 74 115 1.0 9.0 0.00 0.00 0.00 34 1010.9
20260502214512 75 141 3.0 21.0 0.00 0.00 0.00 34 1010.9
20260502213008 74 82 4.0 8.0 0.00 0.00 0.00 40 1011.1
20260502211515 74 146 7.0 14.0 0.00 0.00 0.00 42 1011.3
20260502210109 71 148 0.0 1.0 0.00 0.00 0.00 45 1011.2
20260502204555 69 12 1.0 11.0 0.00 0.00 0.00 49 1011.1
20260502203057 69 67 6.0 10.0 0.00 0.00 0.00 50 1012.1
20260502201549 71 104 0.0 0.0 0.00 0.00 0.00 42 1012.2
20260502200043 71 95 4.0 11.0 0.00 0.00 0.00 44 1012.3
20260502194542 72 101 7.0 11.0 0.00 0.00 0.00 45 1012.2
20260502193042 72 132 1.0 10.0 0.00 0.00 0.00 46 1012.2
20260502191542 72 105 4.0 13.0 0.00 0.00 0.00 44 1012.0
20260502190041 74 134 2.0 11.0 0.00 0.00 0.00 45 1011.9
20260502184537 75 128 7.0 11.0 0.00 0.00 0.00 36 1011.6